Location: Flotzheim
(48.8375°N, 10.8136°E)
Time: 04:47:00
(UTC+00:00)

NOSS 2-1 (D) - Pass Details

Date: 23 January 2021
Orbit: 434 x 1768 km, 63.3° (Epoch: 24 February)

Event Time Altitude Azimuth Distance (km) Brightness Sun altitude
Rises 17:35:11 0° 197° (SSW) 2,470 7.1 -15.4°
Reaches altitude 10° 17:37:26 10° 186° (S) 1,550 5.8 -15.8°
Maximum altitude 17:40:24 31° 122° (ESE) 793 3.7 -16.3°
Enters shadow 17:40:26 31° 121° (ESE) 793 3.7 -16.3°
